Sarasota, FL

1:52 PM EDT on March 29, 2017 (GMT -0400)
Sarasota-bradenton

Weather History for KSRQ - November, 2012

Change the Weather History Date:

Tuesday, November 6, 2012

  Actual Average Record
Temperature  
Mean Temperature 68 °F 71 °F  
Max Temperature 75 °F 81 °F 92 °F (1972)
Min Temperature 61 °F 62 °F 40 °F (1976)
Degree Days  
Heating Degree Days 0 0  
Month to date heating degree days 0 0  
Since 1 July heating degree days 0 3  
Cooling Degree Days 3 7  
Month to date cooling degree days 22 43  
Year to date cooling degree days 3670 3187  
Growing Degree Days 18 (Base 50)    
Moisture  
Dew Point 61 °F    
Average Humidity 82    
Maximum Humidity 93    
Minimum Humidity 58    
Precipitation  
Precipitation T in 0.08 in 1.36 in (1919)
Month to date precipitation T 0.49  
Year to date precipitation 43.69 49.04  
Sea Level Pressure  
Sea Level Pressure 29.89 in    
Wind  
Wind Speed 5 mph (NW)    
Max Wind Speed 16 mph    
Max Gust Speed 20 mph    
Visibility 9 miles    
Events Rain    
T = Trace of Precipitation, MM = Missing Value Source: NWS Daily Summary

Daily Weather History Graph

Daily Weather History Graph

Search for Another Location

Airport or City:

Trip Planner

Search our weather history database for the weather conditions in past years. The results will help you decide how hot, cold, wet, or windy it might be!

Date:

Astronomy

Nov. 06, 2012 Rise Set
Actual Time 6:44 AM EST 5:42 PM EST
Civil Twilight 6:20 AM EST 6:07 PM EST
Nautical Twilight 5:52 AM EST 6:34 PM EST
Astronomical Twilight 5:24 AM EST 7:02 PM EST
Moon No Moon Rise 12:40 PM EST (11/6)
Length of Visible Light 11h 47m
Length of Day
10h 58m
Waning Gibbous, 53% of the Moon is Illuminated
Nov 6
Waning Gibbous
Nov 6
Last Quarter
Nov 13
New
Nov 20
First Quarter
Nov 28
Full

Hourly Weather History & Observations

Time (EST) Temp. Dew Point Humidity Pressure Visibility Wind Dir Wind Speed Gust Speed Precip Events Conditions
12:53 AM 64.0 °F 61.0 °F 90% 29.92 in 10.0 mi Calm Calm - N/A   Clear
1:53 AM 64.0 °F 61.0 °F 90% 29.91 in 10.0 mi Calm Calm - N/A   Partly Cloudy
2:53 AM 63.0 °F 61.0 °F 93% 29.90 in 10.0 mi ESE 3.5 mph - N/A   Clear
3:53 AM 62.1 °F 60.1 °F 93% 29.90 in 10.0 mi Calm Calm - N/A   Clear
4:53 AM 62.1 °F 60.1 °F 93% 29.91 in 10.0 mi Calm Calm - N/A   Overcast
5:53 AM 62.1 °F 60.1 °F 93% 29.91 in 10.0 mi Calm Calm - 0.00 in Rain Light Rain
6:53 AM 63.0 °F 60.1 °F 90% 29.90 in 10.0 mi SE 4.6 mph - 0.00 in Rain Light Rain
7:53 AM 66.9 °F 62.1 °F 84% 29.92 in 10.0 mi Calm Calm - 0.00 in   Mostly Cloudy
8:53 AM 64.9 °F 62.1 °F 90% 29.91 in 6.0 mi NE 4.6 mph - N/A Rain Rain
9:27 AM 64.4 °F 62.6 °F 94% 29.94 in 2.5 mi North 9.2 mph - N/A Rain Rain
9:34 AM 64.4 °F 62.6 °F 94% 29.95 in 4.0 mi North 6.9 mph - N/A Rain Rain
9:53 AM 64.9 °F 63.0 °F 93% 29.94 in 10.0 mi ESE 5.8 mph - N/A Rain Light Rain
10:53 AM 68.0 °F 64.9 °F 90% 29.92 in 10.0 mi ESE 4.6 mph - N/A   Mostly Cloudy
11:53 AM 71.1 °F 66.9 °F 87% 29.89 in 10.0 mi South 6.9 mph - N/A   Mostly Cloudy
12:53 PM 73.9 °F 66.0 °F 76% 29.86 in 10.0 mi SW 9.2 mph - N/A   Mostly Cloudy
1:53 PM 73.9 °F 66.0 °F 76% 29.84 in 10.0 mi WSW 8.1 mph - N/A   Mostly Cloudy
2:53 PM 73.0 °F 64.9 °F 76% 29.84 in 10.0 mi West 8.1 mph - N/A   Overcast
3:53 PM 73.9 °F 64.9 °F 73% 29.84 in 10.0 mi West 9.2 mph - N/A   Scattered Clouds
4:53 PM 73.0 °F 64.0 °F 73% 29.84 in 10.0 mi WNW 9.2 mph - N/A   Clear
5:53 PM 69.1 °F 62.1 °F 78% 29.84 in 10.0 mi NW 5.8 mph - N/A   Clear
6:53 PM 68.0 °F 61.0 °F 78% 29.86 in 10.0 mi NW 4.6 mph - N/A   Clear
7:53 PM 66.9 °F 62.1 °F 84% 29.87 in 10.0 mi NW 4.6 mph - N/A   Scattered Clouds
8:53 PM 69.1 °F 55.9 °F 63% 29.90 in 10.0 mi NNW 10.4 mph 19.6 mph N/A   Mostly Cloudy
9:53 PM 66.9 °F 52.0 °F 59% 29.90 in 10.0 mi NNW 8.1 mph - N/A   Clear
10:53 PM 63.0 °F 52.0 °F 67% 29.90 in 10.0 mi NNW 5.8 mph - N/A   Clear
11:53 PM 63.0 °F 52.0 °F 67% 29.88 in 10.0 mi NNW 4.6 mph - N/A   Clear